Weather History for Franklin, NC

Change the Weather History Date:

Saturday, February 16, 2013

  Actual Average (KTOC) Record (KTOC)
Temperature  
Mean Temperature 30 °F -  
Max Temperature 36 °F 57 °F 64 °F (2014)
Min Temperature 23 °F 36 °F 32 °F (2014)
Degree Days  
Heating Degree Days 35    
Moisture  
Dew Point 19 °F    
Average Humidity 64    
Maximum Humidity 83    
Minimum Humidity 37    
Precipitation  
Precipitation 0.00 in - - ()
Sea Level Pressure  
Sea Level Pressure 29.95 in    
Wind  
Wind Speed 7 mph (NW)    
Max Wind Speed 17 mph    
Max Gust Speed 29 mph    
Visibility 9 miles    
Events Snow    
Averages and records for this station are not official NWS values.
T = Trace of Precipitation, MM = Missing Value Source: NWS Daily Summary

Daily Weather History Graph

Daily Weather History Graph

Search for Another Location

Airport:

Trip Planner

Search our weather history database for the weather conditions in past years. The results will help you decide how hot, cold, wet, or windy it might be!

Date:

Astronomy

Feb. 16, 2013 Rise Set
Actual Time 7:18 AM EST 6:17 PM EST
Civil Twilight 6:52 AM EST 6:43 PM EST
Nautical Twilight 6:22 AM EST 7:13 PM EST
Astronomical Twilight 5:53 AM EST 7:42 PM EST
Moon 10:47 AM EST (2/16) 12:00 AM EST (2/16)
Length of Visible Light 11h 50m
Length of Day
10h 58m
Waxing Crescent, 39% of the Moon is Illuminated
Feb 16
Waxing Crescent
Feb 17
First Quarter
Feb 25
Full
Mar 4
Last Quarter
Mar 11
New

Hourly Weather History & Observations

Time (EST) Temp. Windchill Dew Point Humidity Pressure Visibility Wind Dir Wind Speed Gust Speed Precip Events Conditions
12:15 AM 37.4 °F 31.4 °F 28.8 °F 71% 29.99 in 10.0 mi NW 8.1 mph - N/A   Overcast
12:35 AM 36.9 °F 30.1 °F 27.9 °F 70% 29.99 in 10.0 mi NW 9.2 mph - N/A   Overcast
12:55 AM 36.0 °F 33.3 °F 26.2 °F 68% 29.99 in 10.0 mi NNW 3.5 mph - N/A   Mostly Cloudy
1:15 AM 35.1 °F 31.0 °F 25.5 °F 68% 29.98 in 10.0 mi WNW 4.6 mph - N/A   Scattered Clouds
1:35 AM 34.9 °F 29.9 °F 24.8 °F 67% 29.97 in 10.0 mi NW 5.8 mph - N/A   Scattered Clouds
1:55 AM 34.9 °F 29.0 °F 24.4 °F 66% 29.97 in 10.0 mi NW 6.9 mph - N/A   Clear
2:15 AM 34.5 °F 31.6 °F 23.9 °F 65% 29.97 in 10.0 mi NW 3.5 mph - N/A   Scattered Clouds
2:35 AM 33.8 °F 29.6 °F 23.5 °F 66% 29.96 in 10.0 mi NNW 4.6 mph - N/A   Scattered Clouds
2:55 AM 34.2 °F 31.2 °F 22.3 °F 62% 29.95 in 10.0 mi NNW 3.5 mph - N/A   Scattered Clouds
3:15 AM 32.9 °F 27.5 °F 22.6 °F 66% 29.94 in 10.0 mi NNW 5.8 mph - N/A   Scattered Clouds
3:35 AM 32.9 °F - 22.6 °F 66% 29.94 in 10.0 mi Calm Calm - N/A   Clear
3:55 AM 29.5 °F - 24.8 °F 83% 29.93 in 10.0 mi Calm Calm - N/A   Clear
4:15 AM 29.8 °F - 25.0 °F 82% 29.93 in 10.0 mi Calm Calm - N/A   Clear
4:35 AM 31.1 °F 27.7 °F 24.6 °F 77% 29.92 in 10.0 mi WNW 3.5 mph - N/A   Scattered Clouds
4:55 AM 32.9 °F 28.5 °F 22.5 °F 65% 29.93 in 10.0 mi NW 4.6 mph - N/A   Mostly Cloudy
5:15 AM 33.1 °F 28.7 °F 22.3 °F 65% 29.93 in 10.0 mi NNW 4.6 mph - N/A   Overcast
5:35 AM 32.9 °F 29.8 °F 22.1 °F 65% 29.92 in 10.0 mi NW 3.5 mph - N/A   Mostly Cloudy
5:55 AM 32.9 °F 29.8 °F 22.1 °F 65% 29.92 in 10.0 mi North 3.5 mph - N/A   Mostly Cloudy
6:15 AM 32.0 °F - 23.5 °F 71% 29.92 in 10.0 mi Calm Calm - N/A   Mostly Cloudy
6:35 AM 31.1 °F - 25.0 °F 78% 29.92 in 10.0 mi Calm Calm - N/A   Overcast
6:55 AM 30.7 °F 27.3 °F 25.7 °F 82% 29.92 in 10.0 mi WSW 3.5 mph - N/A   Overcast
7:15 AM 30.2 °F - 25.7 °F 83% 29.91 in 10.0 mi Calm Calm - N/A   Overcast
7:35 AM 32.0 °F 27.5 °F 23.2 °F 70% 29.92 in 10.0 mi NW 4.6 mph - N/A   Overcast
7:55 AM 32.0 °F 28.7 °F 23.2 °F 70% 29.92 in 10.0 mi North 3.5 mph - N/A   Overcast
8:15 AM 32.2 °F 26.7 °F 23.5 °F 70% 29.92 in 10.0 mi North 5.8 mph - N/A   Overcast
8:35 AM 32.4 °F 26.0 °F 23.5 °F 70% 29.92 in 10.0 mi North 6.9 mph - N/A   Overcast
8:55 AM 32.7 °F 25.7 °F 23.2 °F 68% 29.92 in 10.0 mi NW 8.1 mph - N/A   Overcast
9:15 AM 32.9 °F 29.8 °F 23.0 °F 67% 29.92 in 10.0 mi NW 3.5 mph - N/A   Mostly Cloudy
9:35 AM 32.9 °F 25.9 °F 23.0 °F 67% 29.91 in 10.0 mi NNW 8.1 mph - N/A   Mostly Cloudy
9:55 AM 33.4 °F 27.3 °F 22.6 °F 65% 29.92 in 10.0 mi NW 6.9 mph - N/A   Scattered Clouds
10:15 AM 33.8 °F 29.6 °F 21.4 °F 60% 29.91 in 10.0 mi NNW 4.6 mph - N/A   Clear
10:35 AM 35.1 °F 29.3 °F 20.1 °F 55% 29.91 in 10.0 mi WNW 6.9 mph - N/A   Clear
1:15 PM 33.8 °F 24.8 °F 15.8 °F 48% 29.90 in 10.0 mi WNW 12.7 mph 21.9 mph N/A   Scattered Clouds
1:35 PM 33.6 °F 24.6 °F 11.3 °F 40% 29.90 in 10.0 mi NW 12.7 mph 23.0 mph N/A   Clear
1:55 PM 32.5 °F 23.2 °F 9.1 °F 38% 29.89 in 10.0 mi NNW 12.7 mph 28.8 mph N/A   Clear
2:15 PM 34.7 °F 26.9 °F 11.7 °F 39% 29.89 in 10.0 mi NW 10.4 mph 20.7 mph N/A   Scattered Clouds
2:35 PM 33.4 °F 25.4 °F 9.7 °F 37% 29.89 in 10.0 mi West 10.4 mph 25.3 mph N/A   Scattered Clouds
2:55 PM 32.0 °F 23.6 °F 9.1 °F 38% 29.89 in 10.0 mi North 10.4 mph 24.2 mph N/A   Mostly Cloudy
3:15 PM 33.1 °F 23.4 °F 13.8 °F 45% 29.90 in 10.0 mi NW 13.8 mph 21.9 mph N/A   Overcast
3:35 PM 30.9 °F 20.7 °F 14.9 °F 52% 29.91 in 10.0 mi WNW 13.8 mph 20.7 mph N/A   Overcast
3:55 PM 27.9 °F 17.3 °F 20.5 °F 74% 29.92 in 0.8 mi WNW 12.7 mph 20.7 mph N/A Snow Light Snow
4:15 PM 29.7 °F 22.0 °F 17.6 °F 61% 29.92 in 4.0 mi North 8.1 mph 19.6 mph N/A Snow Light Snow
4:55 PM 27.3 °F 17.7 °F 17.8 °F 67% 29.93 in 10.0 mi NW 10.4 mph 23.0 mph N/A   Mostly Cloudy
5:15 PM 28.6 °F 16.4 °F 15.1 °F 57% 29.94 in 10.0 mi WNW 17.3 mph 27.6 mph N/A   Scattered Clouds
5:35 PM 27.3 °F 16.6 °F 15.4 °F 61% 29.94 in 7.0 mi NW 12.7 mph 25.3 mph N/A Snow Light Snow
5:55 PM 27.1 °F 18.2 °F 14.9 °F 60% 29.94 in 10.0 mi NNW 9.2 mph 17.3 mph N/A   Scattered Clouds
6:15 PM 26.1 °F 16.2 °F 18.3 °F 73% 29.96 in 1.8 mi NW 10.4 mph 20.7 mph N/A Snow Light Snow
6:55 PM 26.1 °F - 16.2 °F 66% 29.96 in 10.0 mi Calm Calm - N/A   Mostly Cloudy
7:15 PM 24.6 °F 16.7 °F 19.2 °F 80% 29.97 in 0.8 mi NW 6.9 mph 21.9 mph N/A Snow Snow
7:35 PM 24.4 °F 14.9 °F 16.7 °F 72% 29.97 in 10.0 mi WNW 9.2 mph - N/A   Mostly Cloudy
7:55 PM 25.5 °F 14.9 °F 13.8 °F 61% 29.99 in 10.0 mi NW 11.5 mph 18.4 mph N/A   Mostly Cloudy
8:15 PM 23.9 °F 14.2 °F 18.5 °F 80% 29.99 in 1.2 mi WNW 9.2 mph - N/A Snow Light Snow
8:35 PM 23.5 °F 13.7 °F 18.3 °F 80% 30.00 in 0.8 mi WNW 9.2 mph - N/A Snow Light Snow
8:55 PM 24.6 °F 17.7 °F 15.6 °F 69% 30.00 in 10.0 mi WNW 5.8 mph - N/A   Overcast
9:15 PM 24.8 °F 14.0 °F 11.7 °F 57% 30.00 in 10.0 mi WNW 11.5 mph - N/A   Mostly Cloudy
9:55 PM 24.8 °F 14.6 °F 12.9 °F 61% 30.02 in 10.0 mi WNW 10.4 mph 18.4 mph N/A Snow Light Snow
10:15 PM 24.8 °F 14.0 °F 11.3 °F 57% 30.02 in 10.0 mi WNW 11.5 mph 16.1 mph N/A   Mostly Cloudy
10:35 PM 24.8 °F 13.4 °F 10.2 °F 54% 30.02 in 10.0 mi WNW 12.7 mph 21.9 mph N/A   Scattered Clouds
10:55 PM 24.4 °F 13.5 °F 9.9 °F 54% 30.02 in 10.0 mi WNW 11.5 mph 20.7 mph N/A   Scattered Clouds
11:15 PM 24.3 °F 14.6 °F 9.7 °F 54% 30.02 in 10.0 mi WNW 9.2 mph - N/A   Scattered Clouds
11:35 PM 24.3 °F 12.7 °F 8.4 °F 51% 30.02 in 10.0 mi NW 12.7 mph 19.6 mph N/A   Scattered Clouds
11:55 PM 23.7 °F 14.0 °F 8.1 °F 51% 30.02 in 10.0 mi WNW 9.2 mph 17.3 mph N/A   Scattered Clouds